This is the latest recevied weather packets stored in our database for station/object OH2TH. If no packets are shown the sender has not sent any weather packets the latest 10 day(s).
| Time | Temp. | Humidity | Pressure | Rain* | Wind** | Luminosity | Snow |
|---|---|---|---|---|---|---|---|
| 1788368404 | 17.22° C | 87% | 1010 hPa | - | - | - | - |
| 1788367504 | 17.22° C | 82% | 1010 hPa | - | - | - | - |
| 1788366604 | 18.33° C | 78% | 1010 hPa | - | - | - | - |
| 1788365704 | 18.33° C | 76% | 1010 hPa | - | - | - | - |
| 1788362103 | 20° C | 68% | 1010 hPa | - | - | - | - |
| 1788360303 | 20° C | 58% | 1010 hPa | - | - | - | - |
| 1788358502 | 21.11° C | 64% | 1010 hPa | - | - | - | - |
| 1788357602 | 21.11° C | 61% | 1010 hPa | - | - | - | - |
| 1788356702 | 21.11° C | 62% | 1010 hPa | - | - | - | - |
| 1788355802 | 21.11° C | 63% | 1010 hPa | - | - | - | - |
| 1788354901 | 21.11° C | 59% | 1010 hPa | - | - | - | - |
| 1788354001 | 21.11° C | 53% | 1010 hPa | - | - | - | - |
| 1788352201 | 21.11° C | 53% | 1010 hPa | - | - | - | - |
| 1788351300 | 21.11° C | 51% | 1010 hPa | - | - | - | - |
| 1788349505 | 20.56° C | 56% | 1010 hPa | - | - | - | - |
| 1788348604 | 20.56° C | 53% | 1010 hPa | - | - | - | - |
| 1788347704 | 20.56° C | 58% | 1010 hPa | - | - | - | - |
| 1788346804 | 20.56° C | 57% | 1010 hPa | - | - | - | - |
| 1788345004 | 20° C | 60% | 1010 hPa | - | - | - | - |
| 1788344103 | 20° C | 61% | 1010 hPa | - | - | - | - |
| 1788343203 | 20° C | 60% | 1010 hPa | - | - | - | - |
| 1788341403 | 18.89° C | 61% | 1010 hPa | - | - | - | - |
| 1788340502 | 18.89° C | 62% | 1010 hPa | - | - | - | - |
| 1788339602 | 18.89° C | 64% | 1010 hPa | - | - | - | - |
| 1788338702 | 17.78° C | 66% | 1010 hPa | - | - | - | - |
* Rain since midnight (hover to see other rain measurements)
** Current wind speed in m/s (hover to see current wind gust speed)